Regional Weather Roundup
Issued by NWS

Home | Current Version | Previous Version | Graphics & Text | Print | Product List | Glossary On
Versions: 1 2 3 4 5 6 7 8 9 10 11 12 13 14 15 16 17 18 19 20 21 22 23 24 25 26 27 28 29 30 31 32 33 34 35 36 37 38 39 40 41 42 43 44 45 46 47 48
000
ASUS45 KSLC 280410
RWRUT

UTAH REGIONAL WEATHER ROUNDUP
NATIONAL WEATHER SERVICE SALT LAKE CITY UT
1000 PM MDT THU AUG 27 2015

UTZ001>011-023>025-280500-

NORTHERN UTAH

CITY           SKY/WX    TMP DP  RH WIND       PRES   REMARKS
BRIGHAM CITY   MOCLDY    77  47  35 E5        30.15F
HILL AFB       PTCLDY    74  50  42 E9        30.19S
LOGAN          CLEAR     68  51  54 VRB3      30.18R
OGDEN          MOCLDY    76  50  40 E9        30.16S
PROVO AIRPORT  CLEAR     70  52  52 CALM      30.20R
SALT LAKE CITY PTCLDY    77  48  35 SE8       30.15R
VERNAL         PTCLDY    71  41  33 NW6       30.23R
WENDOVER       PTCLDY    79  39  24 NE8       30.16R
HEBER CITY     CLEAR     59  45  58 E7        30.28R
WEST JORDAN    CLEAR     73  39  29 CALM      30.20R

$$

UTZ012>022-026-027-280500-

SOUTHERN/CENTRAL UTAH

CITY           SKY/WX    TMP DP  RH WIND       PRES   REMARKS
BLANDING       PTCLDY    68  46  44 N10       30.31R
BRYCE CANYON   PTCLDY    57  52  83 W6        30.42R
CEDAR CITY     CLEAR     69  46  43 SE3       30.26R
DELTA          CLEAR     73  43  34 NE5       30.20R
HANKSVILLE     MOCLDY    79  45  29 NW8       30.16R
MILFORD        CLEAR     67  45  45 CALM      30.20R
MOAB/CYNLANDS  PTCLDY    76  53  44 W6        30.13R
PRICE          PTCLDY    69  43  38 NW9       30.26R
ST GEORGE      CLEAR     86  46  25 SW6       30.05R
KANAB          PTCLDY    70  63  78 N6        30.26R

$$

REGIONAL REPORTS     COLORADO/ARIZONA

CITY           SKY/WX    TMP DP  RH WIND       PRES   REMARKS
CRAIG, CO      MOCLDY    61  49  64 S9        30.30R
GRAND JUNCTION MOCLDY    70  55  59 N21G35    30.20R THUNDER
RIFLE          TSTM      60  55  83 SE15      30.29S
MONTROSE       CLEAR     67  57  70 SE8       30.26R
CORTEZ         MOCLDY    62  56  80 E3        30.25R
PAGE, AZ       PTCLDY    81  52  36 W3        30.13R
GRAND CANYON   MOCLDY    62  46  55 CALM      30.35R
KINGMAN        CLEAR     81  54  39 SE9       30.09R
FLAGSTAFF      CLOUDY    57  57 100 CALM      30.39R

$$

REGIONAL REPORTS    NEVADA/IDAHO/WYOMING

CITY           SKY/WX    TMP DP  RH WIND       PRES   REMARKS
LAS VEGAS, NV  PTCLDY    95  51  22 CALM      29.93R HX  92
ELY            CLEAR     63  44  50 S9        30.31R
ELKO           CLEAR     76  32  20 N5        30.19R
POCATELLO, ID  CLEAR     70  34  26 S9        30.15R
BURLEY         CLEAR     63  49  60 S3        30.12R
EVANSTON, WY   PTCLDY    60  37  42 S6        30.38R
ROCK SPRINGS   PTCLDY    61  45  55 W3        30.33S
KEMMERER       PTCLDY    55  39  54 NW9       30.38S

$$



USA.gov is the U.S. government's official web portal to all federal, state and local government web resources and services.